Regional Weather Roundup
Issued by NWS

Home | Current Version | Previous Version | Text Only | Print | Product List | Glossary Off
Versions: 1 2 3 4 5 6 7 8 9 10 11 12 13 14 15 16 17 18 19 20 21 22 23 24 25 26 27 28 29 30 31 32 33 34 35 36 37 38 39 40 41 42 43 44 45 46 47 48 49 50

179
ASUS43 KMKX 061400
RWRWI

WISCONSIN REGIONAL WEATHER ROUNDUP
NATIONAL WEATHER SERVICE MILWAUKEE/SULLIVAN WI
800 AM CST TUE DEC 06 2016

NOTE: "FAIR" INDICATES FEW OR NO CLOUDS BELOW 12,000 FEET WITH NO
SIGNIFICANT WEATHER AND/OR OBSTRUCTIONS TO VISIBILITY.

WIZ001-002-006>008-014>016-023>028-061500-
NORTHWEST WISCONSIN

CITY           SKY/WX    TMP DP  RH WIND       PRES   REMARKS
SUPERIOR ARPT  CLOUDY    31  25  76 SW16      29.59F WCI  20
ASHLAND        FLURRIES  34  31  88 MISG      29.60F
HAYWARD        LGT SNOW  30  27  88 S14G22    29.61F FOG     WCI  19
SIREN          CLOUDY    28  21  74 SW17G23   29.64F WCI  16
CUMBERLAND     LGT SNOW  28  27  93 SW12      29.64F WCI  18
RICE LAKE      LGT SNOW  29  27  92 SW6       29.68S WCI  23
CHETEK         LGT SNOW  29  28  94 SW9G18    29.67F WCI  21
LADYSMITH      LGT SNOW  32  32  99 S8        29.66F WCI  25
EAU CLAIRE     NOT AVBL
MENOMONIE      LGT SNOW  31  29  94 SW8       29.70F WCI  23
NEW RICHMOND   CLOUDY    26  19  73 SW18G26   29.69R WCI  13
OSCEOLA        CLOUDY    25  18  73 SW16      29.73R WCI  13
$$

WIZ003>005-009-010-017-018-061500-
NORTH CENTRAL WISCONSIN

CITY           SKY/WX    TMP DP  RH WIND       PRES   REMARKS
MANITOWISH WTR CLOUDY    30  30 100 S14       29.63F WCI  20
ARBOR VITAE    CLOUDY    32  29  90 S9        29.66F WCI  24
WOODRUFF       CLOUDY    32  29  90 S9        29.66F WCI  24
RHINELANDER    CLOUDY    31  29  92 SE9       29.68F FOG     WCI  23
EAGLE RIVER    CLOUDY    30  27  86 S12       29.68F FOG     WCI  21
LAND O LAKES   CLOUDY    31  28  88 S10G17    29.68F WCI  23
PHILLIPS       LGT SNOW  31  30  97 S7G16     29.64F WCI  24
TOMAHAWK       CLOUDY    30  28  92 S3        29.69F FOG
MEDFORD        LGT SNOW  29  28  96 S13       29.67F WCI  19
MERRILL        CLOUDY    30  29  96 S6        29.72F FOG     WCI  24
$$

WIZ029-030-035-036-043>047-061500-
CENTRAL WISCONSIN

CITY           SKY/WX    TMP DP  RH WIND       PRES   REMARKS
WAUSAU         CLOUDY    30  28  92 SE8       29.70F FOG     WCI  22
MOSINEE        CLOUDY    30  30 100 S9        29.73F FOG     WCI  22
MARSHFIELD     CLOUDY    30  28  92 S12       29.70F FOG     WCI  20
STEVENS POINT  CLOUDY    29  28  99 S8        29.76S FOG     WCI  21
WAUPACA        CLOUDY    33  30  88 S3        29.80S FOG
WAUTOMA        CLOUDY    31  30  96 S5        29.78F FOG     WCI  26
WISC RAPIDS    CLOUDY    31  30  96 S8        29.75F WCI  23
CAMP DOUGLAS   CLOUDY    32  30  93 S9        29.74F FOG     WCI  24
$$

WIZ011>013-019>022-031-037>040-048>050-061500-
NORTHEAST WISCONSIN

CITY           SKY/WX    TMP DP  RH WIND       PRES   REMARKS
ANTIGO         CLOUDY    29  28  98 S10       29.73F FOG     WCI  20
SHAWANO        CLOUDY    36  32  87 SW6       29.79S WCI  31
OCONTO         CLOUDY    38  34  84 S8G16     29.79S WCI  32
STURGEON BAY   CLOUDY    37  33  85 SE13G18   29.79F WCI  29
GREEN BAY      CLOUDY    37  35  92 SW6       29.78F WCI  32
MANITOWOC      NOT AVBL
APPLETON       CLOUDY    34  32  93 SW9       29.77F FOG     WCI  26
CLINTONVILLE   CLOUDY    32  30  93 S10G18    29.79S FOG     WCI  24
OSHKOSH        CLOUDY    33  31  92 SW6       29.78F FOG     WCI  28
$$

WIZ032>034-041-042-053>061-061500-
SOUTHWEST WISCONSIN

CITY           SKY/WX    TMP DP  RH WIND       PRES   REMARKS
LA CROSSE      LGT SNOW  34  32  92 S8        29.74F FOG     WCI  27
SPARTA         LGT SNOW  32  31  96 S5        29.74F WCI  27
VIROQUA        CLOUDY    31  31 100 S8        29.74F VSB 1   WCI  23
BOSCOBEL       CLOUDY    34  32  92 CALM      29.77F FOG
PRAIRIE DU CHI CLOUDY    33  32  96 CALM      29.77F FOG
PLATTEVILLE    CLOUDY    32  32 100 S5        29.78F VSB 1/4 WCI  27
$$

WIZ056-057-062-063-064-067-068-061500-
SOUTH CENTRAL WISCONSIN

CITY           SKY/WX    TMP DP  RH WIND       PRES   REMARKS
REEDSBURG      CLOUDY    31  31 100 S6        29.77F FOG     WCI  25
BARABOO/DELLS  CLOUDY    31  30  96 S5        29.77F FOG     WCI  26
LONE ROCK      CLOUDY    32  30  93 SE3       29.78F FOG
MINERAL POINT  FOG       32  32 100 S5        29.77F VSB<1/4 WCI  27
MADISON        CLOUDY    32  30  92 SW6       29.79F FOG     WCI  26
MIDDLETON      NOT AVBL
WATERTOWN      CLOUDY    32  32 100 SW3       29.80F FOG
MONROE         FOG       32  32 100 S3        29.77F VSB 3/4
JANESVILLE     FOG       34  34 100 CALM      29.79F VSB 1/2
$$

WIZ051-052-058>065-066-070>072-061500-
SOUTHEAST WISCONSIN

CITY           SKY/WX    TMP DP  RH WIND       PRES   REMARKS
MILWAUKEE      MOCLDY    37  33  85 SE7       29.79F WCI  32
WAUKESHA       CLOUDY    30  30 100 SE7       29.80S FOG     WCI  23
MILWAUKEE/TIMM CLEAR     36  32  87 CALM      29.80F FOG
RACINE         MOCLDY    39  34  82 SE7       29.81F WCI  34
BURLINGTON     CLOUDY    32  32  99 CALM      29.80S FOG
KENOSHA        CLOUDY    33  31  92 CALM      29.79F FOG
FOND DU LAC    CLOUDY    34  30  85 SW7       29.79F FOG     WCI  28
SHEBOYGAN      CLOUDY    37  33  85 S5        29.80S WCI  33
WEST BEND      CLOUDY    32  32 100 CALM      29.79S FOG
JUNEAU         FOG       31  31  99 SW6       29.81F VSB<1/4 WCI  25
$$

LSZ147-162-061500-
LAKE SUPERIOR

STATION/POSITION TIME  TEMP    WIND        PRES    WAVE
                       AIR SEA DIR/SP/G            HT/PER
                 (UTC) (F)     (DEG/KT/KT) (MB)    (FT/S)
DEVILS ISLAND    1300   35     180/ 13/ 17 1003.0F
PORT WING        1340   33     190/ 10/ 16 1002.4F
SAXON HARBOR     1330   36     180/  6/ 16 1002.7F
$$

LMZ867-665-643>646-061500-
LAKE MICHIGAN

STATION/POSITION TIME  TEMP    WIND        PRES    WAVE
                       AIR SEA DIR/SP/G            HT/PER
                 (UTC) (F)     (DEG/KT/KT) (MB)    (FT/S)
CHAMBERS ISLAND  1330   38     140/ 10/ 16 1008.5F
NORTHPORT PIER   1340   39     160/ 13/ 18 1009.5F
SISTER BAY       1308   39     160/ 14/ 19   N/A
ALGOMA LAKESHORE 1321          180/ 19/ 25   N/A
KEWAUNEE LAKESHO 1330   38     170/ 17/ 20 1008.6F
SHEBOYGAN LAKESH 1300   40     140/ 15/ 16 1009.4F
PORT WASHINGTON  1340   41     150/ 10/ 14 1010.2S
MILWAUKEE LAKESH 1330   40     140/ 10/ 11   N/A
KENOSHA   LAKESH 1300   40     130/  8/ 10 1009.5
$$

TC  - TEMPERATURE IN CELSIUS
VSB - VISIBILITY IN STATUTE MILES
WCI - WIND CHILL INDEX
HX  - HEAT INDEX





USA.gov is the U.S. government's official web portal to all federal, state and local government web resources and services.